Simultaneous Nadir Overpasses (SNOs) Predictions

Prediction of SNOs between GOES-14 and NOAA-20 Satellite Orbit:

Table of predicted SNOs for the next 14.0 days since TLE Epoch: 10/11/2019
Index Date Time (GOES-14) GOES-14 Lat,Lon NOAA-20 Lat,Lon Distance(km) Time Diff (sec)
1 10/13/2019 08:32:18 0.23,-104.23 0.73,-106.48 256.41 80
2 10/14/2019 08:10:54 0.24,-104.22 -0.28,-101.95 258.94 80
3 10/15/2019 20:32:50 -0.22,-104.18 -0.93,-107.25 350.00 80
4 10/16/2019 20:16:45 -0.23,-104.19 0.08,-102.72 167.19 80
5 10/18/2019 08:38:35 0.21,-104.23 1.03,-108.00 429.08 80
6 10/19/2019 08:17:09 0.22,-104.22 0.08,-103.46 85.94 80
7 10/21/2019 20:20:22 -0.20,-104.15 -0.21,-104.24 10.43 80
8 10/24/2019 08:26:06 0.18,-104.21 0.37,-104.99 88.83 80
9 10/25/2019 08:04:41 0.20,-104.19 -0.64,-100.45 426.19 80




NCC Satellite Simultaneous Nadir Overpasses (SNOs) Prediction Service
